Flag for U.S.A. Weather past 2 weeks in Paradise, California, U.S.A.

Now
72 °F

Partly sunny.


Feels Like: 77 °F
Forecast: 51 / 74 °F
Wind: 12 mph from Northwest

Location: Chico Municipal


UV Index: 5 (Moderate)

Visibility: 40 mi


Pressure: 30.12 "Hg

Humidity: 41%

Dew point: 46 °F

Location of ParadiseLocation

Historic Weather in Paradise

°F

Paradise temperature yesterday

Maximum temperature yesterday: 75 °F (at 2:56 PM)
Minimum temperature yesterday: 55 °F (at 4:15 AM)
Average temperature yesterday: 63 °F

Past Weeks' High & Low Weather Summary

 TemperatureHumidityPressure
High84 °F (Apr 17, 3:59 PM)100% (Apr 13, 6:15 AM)30.24 "Hg (Apr 13, 6:15 AM)
Low46 °F (Apr 6, 5:15 AM)18% (Apr 13, 2:57 PM)29.72 "Hg (Apr 17, 5:50 PM)
Average63 °F56%29.96 "Hg
* Reported Apr 5 10:53 AM — Apr 20 10:47 AM, Paradise, Weather by CustomWeather, © 2014

Note: Actual official high and low records may vary slightly from our data, if they occured in-between our weather recording intervals... More about our weather records

Advertising

Historic Weather Conditions — Data for Previous 24 hours

 ConditionsComfort  
Time TempWeatherWind HumidityBarometerVisibility
10:47 AM
Apr 20
68 °FPartly sunny.12 mph43%30.14 "Hg40 mi
9:50 AM63 °FPartly sunny.9 mph52%30.14 "Hg40 mi
8:50 AM55 °FPartly sunny.No wind72%30.14 "Hg40 mi
7:58 AM54 °FPartly sunny.No wind67%30.14 "Hg40 mi
6:47 AM48 °FPassing clouds.6 mph76%30.13 "Hg40 mi
6:35 AM48 °FClear.No wind76%30.13 "Hg10 mi
6:15 AM48 °FClear.No wind76%30.12 "Hg10 mi
5:55 AM50 °FClear.No wind71%30.12 "Hg10 mi
5:35 AM52 °FClear.No wind67%30.12 "Hg10 mi
5:15 AM48 °FClear.No wind87%30.12 "Hg10 mi
4:55 AM50 °FClear.No wind76%30.11 "Hg10 mi
4:35 AM54 °FClear.No wind63%30.12 "Hg10 mi
4:15 AM54 °FClear.No wind63%30.12 "Hg10 mi
3:55 AM54 °FClear.No wind63%30.12 "Hg10 mi
3:35 AM55 °FClear.No wind59%30.12 "Hg10 mi
3:15 AM54 °FPassing clouds.No wind72%30.12 "Hg10 mi
2:55 AM52 °FPassing clouds.No wind77%30.12 "Hg10 mi
2:35 AM57 °FPassing clouds.5 mph55%30.12 "Hg10 mi
2:15 AM55 °FPassing clouds.No wind63%30.12 "Hg10 mi
1:55 AM55 °FPassing clouds.No wind63%30.12 "Hg10 mi
1:35 AM55 °FPassing clouds.No wind63%30.11 "Hg10 mi
1:15 AM57 °FOvercast.No wind59%30.11 "Hg10 mi
12:55 AM57 °FPassing clouds.No wind59%30.11 "Hg10 mi
12:35 AM59 °FPassing clouds.No wind55%30.10 "Hg10 mi
12:15 AM59 °FPassing clouds.No wind55%30.10 "Hg10 mi
11:55 PM
Apr 19
59 °FPassing clouds.No wind59%30.10 "Hg10 mi
11:35 PM59 °FPassing clouds.No wind59%30.10 "Hg10 mi
11:15 PM63 °FPassing clouds.No wind49%30.09 "Hg10 mi
10:55 PM61 °FPassing clouds.No wind55%30.09 "Hg10 mi
10:35 PM63 °FPassing clouds.7 mph52%30.09 "Hg10 mi
10:15 PM64 °FPassing clouds.7 mph49%30.09 "Hg10 mi
9:55 PM66 °FPassing clouds.3 mph43%30.08 "Hg10 mi
9:35 PM66 °FPassing clouds.7 mph46%30.07 "Hg10 mi
9:15 PM64 °FPassing clouds.8 mph49%30.06 "Hg10 mi
8:55 PM66 °FClear.5 mph46%30.04 "Hg10 mi
8:35 PM68 °FSunny.No wind46%30.03 "Hg10 mi
8:15 PM72 °FSunny.3 mph41%30.03 "Hg10 mi
7:55 PM72 °FSunny.No wind33%30.02 "Hg10 mi
7:35 PM73 °FSunny.3 mph36%30.01 "Hg10 mi
7:15 PM73 °FSunny.5 mph31%30.01 "Hg10 mi
6:55 PM75 °FSunny.7 mph27%30.00 "Hg10 mi
3:58 PM75 °FPartly sunny.12 mph29%29.99 "Hg10 mi
2:56 PM75 °FSunny.12 mph29%30.00 "Hg10 mi
1:59 PM73 °FSunny.17 mph33%30.01 "Hg10 mi
12:55 PM72 °FPartly sunny.17 mph36%30.00 "Hg10 mi
Weather by CustomWeather, © 2014

See weather overview